MGL298 VHHH-ZMCK

Flight info

Callsign MGL298
Flight time N/A
Altitude 36100
Route BEKOL A461 YIN/K0863S1070 A461 OBLIK/K0856S1100 W129 CGO B208 NIXAL DCT SND A575 TOROV TOROV2W
Aircraft B38M/M-SDE1FGHILORVWXY/HB1

Departure

Time 2026-05-03 23:40
Airport Hong Kong International Airport (VHHH)

Arrival

Time N/A
Airport Ulaanbaatar Chinggis Khaan International Airport (ZMCK)
Time Latitude Longitude Altitude Speed Heading
2026-05-03 23:17 22.31631 113.93031 7 ft 0 kts 346°
2026-05-03 23:29 22.31619 113.93034 34 ft 4 kts 341°
2026-05-03 23:30 22.31575 113.93059 34 ft 2 kts 325°
2026-05-03 23:30 22.31570 113.93062 34 ft 0 kts 325°
2026-05-03 23:32 22.31572 113.93056 34 ft 1 kts 283°
2026-05-03 23:32 22.31567 113.93040 34 ft 4 kts 248°
2026-05-03 23:33 22.31552 113.92998 34 ft 8 kts 250°
2026-05-03 23:33 22.31561 113.92937 34 ft 10 kts 323°
2026-05-03 23:33 22.31637 113.92904 34 ft 13 kts 341°
2026-05-03 23:33 22.31737 113.92867 34 ft 17 kts 340°
2026-05-03 23:34 22.31770 113.92768 34 ft 17 kts 251°
2026-05-03 23:34 22.31727 113.92636 34 ft 20 kts 251°
2026-05-03 23:34 22.31677 113.92480 35 ft 23 kts 251°
2026-05-03 23:34 22.31624 113.92314 35 ft 24 kts 251°
2026-05-03 23:35 22.31570 113.92144 35 ft 24 kts 251°
2026-05-03 23:35 22.31514 113.91969 35 ft 25 kts 251°
2026-05-03 23:35 22.31455 113.91791 35 ft 25 kts 250°
2026-05-03 23:35 22.31396 113.91609 35 ft 26 kts 252°
2026-05-03 23:36 22.31343 113.91443 35 ft 24 kts 250°
2026-05-03 23:36 22.31288 113.91274 35 ft 24 kts 251°
2026-05-03 23:36 22.31233 113.91101 35 ft 25 kts 251°
2026-05-03 23:36 22.31176 113.90923 35 ft 25 kts 251°
2026-05-03 23:37 22.31118 113.90745 35 ft 26 kts 250°
2026-05-03 23:37 22.31058 113.90558 34 ft 26 kts 250°
2026-05-03 23:37 22.30997 113.90369 34 ft 27 kts 251°
2026-05-03 23:37 22.30939 113.90190 34 ft 21 kts 251°
2026-05-03 23:38 22.30890 113.90036 35 ft 22 kts 252°
2026-05-03 23:38 22.30896 113.89924 35 ft 14 kts 333°
2026-05-03 23:38 22.30988 113.89895 35 ft 13 kts 342°
2026-05-03 23:38 22.31070 113.89864 32 ft 16 kts 340°
2026-05-03 23:39 22.31122 113.89890 32 ft 0 kts 71°
2026-05-03 23:39 22.31124 113.89899 32 ft 13 kts 71°
2026-05-03 23:39 22.31243 113.90271 33 ft 90 kts 71°
2026-05-03 23:39 22.31527 113.91149 34 ft 155 kts 70°
2026-05-03 23:40 22.31929 113.92378 376 ft 184 kts 70°
2026-05-03 23:40 22.32347 113.93684 1316 ft 183 kts 69°
2026-05-03 23:40 22.32767 113.94985 2142 ft 192 kts 68°
2026-05-03 23:40 22.33230 113.96429 2565 ft 215 kts 69°
2026-05-03 23:41 22.33580 113.98098 3066 ft 232 kts 78°
2026-05-03 23:41 22.33843 113.99775 4097 ft 229 kts 78°
2026-05-03 23:41 22.34135 114.01535 4635 ft 247 kts 79°
2026-05-03 23:41 22.34400 114.03390 5378 ft 250 kts 87°
2026-05-03 23:42 22.34166 114.05256 6096 ft 256 kts 115°
2026-05-03 23:42 22.33116 114.06787 6802 ft 255 kts 144°
2026-05-03 23:42 22.31549 114.07656 7420 ft 255 kts 172°
2026-05-03 23:42 22.29809 114.07910 8191 ft 253 kts 176°
2026-05-03 23:43 22.28044 114.08205 8898 ft 258 kts 175°
2026-05-03 23:43 22.26265 114.08531 9671 ft 261 kts 175°
2026-05-03 23:43 22.24445 114.08758 10209 ft 269 kts 186°
2026-05-03 23:43 22.22517 114.08712 10532 ft 287 kts 186°
2026-05-03 23:44 22.20449 114.08723 10818 ft 310 kts 178°
2026-05-03 23:44 22.18310 114.09471 11080 ft 340 kts 153°
2026-05-03 23:44 22.16512 114.11239 11394 ft 363 kts 126°
2026-05-03 23:44 22.15552 114.13799 11854 ft 377 kts 98°
2026-05-03 23:45 22.15479 114.16654 12358 ft 385 kts 92°
2026-05-03 23:45 22.15360 114.19546 13014 ft 388 kts 94°
2026-05-03 23:45 22.15206 114.22475 13599 ft 393 kts 94°